Previsão horária em Baronissi

Hoje, 22 Outubro, Quinta-feira

Tempo Temperatura Precipitação Vento Pressão Humidade
00:00 +14°C° 0 mm 1 m/s 746 mmHg 77%
01:00 +14°C° 0 mm 1 m/s 746 mmHg 78%
02:00 +14°C° 0 mm 1 m/s 746 mmHg 78%
03:00 +14°C° 0 mm 1 m/s 746 mmHg 79%
04:00 +13°C° 0 mm 0 m/s 746 mmHg 79%
05:00 +13°C° 0 mm 0 m/s 746 mmHg 78%
06:00 +13°C° 0 mm 0 m/s 746 mmHg 78%
07:00 +13°C° 0 mm 0 m/s 746 mmHg 77%
08:00 +16°C° 0 mm 1 m/s 746 mmHg 70%
09:00 +18°C° 0 mm 1 m/s 747 mmHg 62%
10:00 +20°C° 0 mm 1 m/s 747 mmHg 54%
11:00 +21°C° 0 mm 1 m/s 747 mmHg 51%
12:00 +22°C° 0 mm 1 m/s 747 mmHg 47%
13:00 +23°C° 0 mm 1 m/s 747 mmHg 44%
14:00 +22°C° 0 mm 1 m/s 746 mmHg 47%
15:00 +22°C° 0 mm 1 m/s 746 mmHg 51%
16:00 +20°C° 0 mm 2 m/s 746 mmHg 54%
17:00 +20°C° 0 mm 1 m/s 746 mmHg 59%
18:00 +18°C° 0 mm 1 m/s 746 mmHg 64%
19:00 +16°C° 0 mm 1 m/s 746 mmHg 69%
20:00 +16°C° 0 mm 1 m/s 746 mmHg 70%
21:00 +15°C° 0 mm 1 m/s 746 mmHg 72%
22:00 +15°C° 0 mm 1 m/s 746 mmHg 73%
23:00 +15°C° 0 mm 1 m/s 746 mmHg 74%

Amanhã, 23 Outubro, Sexta-feira

Tempo Temperatura Precipitação Vento Pressão Humidade
00:00 +14°C° 0 mm 1 m/s 746 mmHg 75%
01:00 +14°C° 0 mm 1 m/s 746 mmHg 76%
02:00 +14°C° 0 mm 1 m/s 746 mmHg 76%
03:00 +14°C° 0 mm 1 m/s 745 mmHg 76%
04:00 +13°C° 0 mm 1 m/s 745 mmHg 75%
05:00 +14°C° 0 mm 1 m/s 745 mmHg 74%
06:00 +13°C° 0 mm 0 m/s 745 mmHg 72%
07:00 +13°C° 0 mm 0 m/s 745 mmHg 70%
08:00 +16°C° 0 mm 1 m/s 745 mmHg 65%
09:00 +18°C° 0 mm 1 m/s 745 mmHg 61%
10:00 +20°C° 0 mm 1 m/s 746 mmHg 56%
11:00 +21°C° 0 mm 1 m/s 745 mmHg 54%
12:00 +22°C° 0 mm 1 m/s 745 mmHg 53%
13:00 +23°C° 0 mm 1 m/s 745 mmHg 51%
14:00 +21°C° 0 mm 2 m/s 744 mmHg 55%
15:00 +21°C° 0 mm 2 m/s 744 mmHg 60%
16:00 +20°C° 0 mm 2 m/s 744 mmHg 64%
17:00 +20°C° 0 mm 1 m/s 744 mmHg 69%
18:00 +19°C° 0 mm 1 m/s 744 mmHg 74%
19:00 +18°C° 0 mm 1 m/s 744 mmHg 79%
20:00 +18°C° 0 mm 1 m/s 744 mmHg 82%
21:00 +16°C° 0 mm 1 m/s 744 mmHg 84%
22:00 +16°C° 0 mm 1 m/s 743 mmHg 86%
23:00 +16°C° 0 mm 1 m/s 743 mmHg 87%

Depois de amanhã, 24 Outubro, Sábado

Tempo Temperatura Precipitação Vento Pressão Humidade
00:00 +16°C° 0 mm 1 m/s 743 mmHg 88%
01:00 +16°C° 0 mm 1 m/s 743 mmHg 88%
02:00 +16°C° 0 mm 1 m/s 743 mmHg 88%
03:00 +16°C° 0 mm 1 m/s 742 mmHg 88%
04:00 +16°C° 0 mm 1 m/s 742 mmHg 88%
05:00 +16°C° 0 mm 1 m/s 742 mmHg 88%
06:00 +16°C° 0 mm 1 m/s 742 mmHg 87%
07:00 +16°C° 0 mm 1 m/s 742 mmHg 86%
08:00 +18°C° 0 mm 1 m/s 742 mmHg 82%
09:00 +19°C° 0 mm 1 m/s 742 mmHg 77%
10:00 +20°C° 0 mm 1 m/s 742 mmHg 73%
11:00 +20°C° 0 mm 2 m/s 742 mmHg 72%
12:00 +20°C° 0 mm 2 m/s 742 mmHg 72%
13:00 +20°C° 0 mm 2 m/s 742 mmHg 72%
14:00 +20°C° 0.1 mm 2 m/s 741 mmHg 73%
15:00 +20°C° 0.1 mm 2 m/s 741 mmHg 75%
16:00 +19°C° 0.1 mm 2 m/s 741 mmHg 77%
17:00 +18°C° 0.1 mm 2 m/s 741 mmHg 80%
18:00 +18°C° 0.1 mm 2 m/s 741 mmHg 83%
19:00 +18°C° 0.1 mm 1 m/s 742 mmHg 86%
20:00 +18°C° 0 mm 1 m/s 742 mmHg 86%
21:00 +16°C° 0 mm 1 m/s 742 mmHg 87%
22:00 +16°C° 0 mm 1 m/s 742 mmHg 87%
23:00 +16°C° 0.1 mm 1 m/s 742 mmHg 87%

, 25 Outubro, Domingo

Tempo Temperatura Precipitação Vento Pressão Humidade
00:00 +16°C° 0.1 mm 1 m/s 742 mmHg 86%
01:00 +15°C° 0.1 mm 1 m/s 741 mmHg 86%
02:00 +15°C° 0 mm 1 m/s 741 mmHg 86%
03:00 +15°C° 0 mm 1 m/s 741 mmHg 86%
04:00 +15°C° 0 mm 1 m/s 741 mmHg 86%
05:00 +15°C° 0 mm 1 m/s 741 mmHg 86%
06:00 +15°C° 0 mm 1 m/s 741 mmHg 86%
07:00 +15°C° 0 mm 1 m/s 740 mmHg 86%
08:00 +16°C° 0 mm 1 m/s 740 mmHg 80%
09:00 +19°C° 0 mm 1 m/s 740 mmHg 74%
10:00 +20°C° 0 mm 1 m/s 740 mmHg 67%
11:00 +20°C° 0.1 mm 1 m/s 740 mmHg 67%
12:00 +19°C° 0.1 mm 2 m/s 740 mmHg 66%
13:00 +20°C° 0.1 mm 2 m/s 740 mmHg 65%
14:00 +19°C° 0.1 mm 2 m/s 739 mmHg 66%
15:00 +19°C° 0.1 mm 2 m/s 739 mmHg 67%
16:00 +19°C° 0.1 mm 2 m/s 739 mmHg 69%
17:00 +18°C° 0 mm 2 m/s 739 mmHg 73%
18:00 +18°C° 0 mm 1 m/s 739 mmHg 77%
19:00 +16°C° 0 mm 1 m/s 739 mmHg 81%
20:00 +16°C° 0 mm 1 m/s 739 mmHg 82%
21:00 +15°C° 0 mm 1 m/s 739 mmHg 82%
22:00 +15°C° 0 mm 1 m/s 739 mmHg 83%
23:00 +15°C° 0 mm 1 m/s 739 mmHg 83%

25 Outubro, Domingo

Tempo Temperatura Precipitação Vento Pressão Humidade
00:00 +16°C° 0.1 mm 1 m/s 742 mmHg 86%
01:00 +15°C° 0.1 mm 1 m/s 741 mmHg 86%
02:00 +15°C° 0 mm 1 m/s 741 mmHg 86%
03:00 +15°C° 0 mm 1 m/s 741 mmHg 86%
04:00 +15°C° 0 mm 1 m/s 741 mmHg 86%
05:00 +15°C° 0 mm 1 m/s 741 mmHg 86%
06:00 +15°C° 0 mm 1 m/s 741 mmHg 86%
07:00 +15°C° 0 mm 1 m/s 740 mmHg 86%
08:00 +16°C° 0 mm 1 m/s 740 mmHg 80%
09:00 +19°C° 0 mm 1 m/s 740 mmHg 74%
10:00 +20°C° 0 mm 1 m/s 740 mmHg 67%
11:00 +20°C° 0.1 mm 1 m/s 740 mmHg 67%
12:00 +19°C° 0.1 mm 2 m/s 740 mmHg 66%
13:00 +20°C° 0.1 mm 2 m/s 740 mmHg 65%
14:00 +19°C° 0.1 mm 2 m/s 739 mmHg 66%
15:00 +19°C° 0.1 mm 2 m/s 739 mmHg 67%
16:00 +19°C° 0.1 mm 2 m/s 739 mmHg 69%
17:00 +18°C° 0 mm 2 m/s 739 mmHg 73%
18:00 +18°C° 0 mm 1 m/s 739 mmHg 77%
19:00 +16°C° 0 mm 1 m/s 739 mmHg 81%
20:00 +16°C° 0 mm 1 m/s 739 mmHg 82%
21:00 +15°C° 0 mm 1 m/s 739 mmHg 82%
22:00 +15°C° 0 mm 1 m/s 739 mmHg 83%
23:00 +15°C° 0 mm 1 m/s 739 mmHg 83%

26 Outubro, Segunda-feira

Tempo Temperatura Precipitação Vento Pressão Humidade
00:00 +15°C° 0 mm 1 m/s 739 mmHg 84%
01:00 +14°C° 0 mm 1 m/s 739 mmHg 85%
02:00 +14°C° 0 mm 1 m/s 738 mmHg 85%
03:00 +14°C° 0 mm 1 m/s 738 mmHg 85%
04:00 +14°C° 0 mm 1 m/s 738 mmHg 86%
05:00 +14°C° 0.1 mm 1 m/s 738 mmHg 86%
06:00 +14°C° 0.1 mm 1 m/s 738 mmHg 86%
07:00 +14°C° 0.1 mm 1 m/s 738 mmHg 86%
08:00 +16°C° 0 mm 2 m/s 738 mmHg 81%
09:00 +17°C° 0 mm 2 m/s 738 mmHg 75%
10:00 +19°C° 0 mm 2 m/s 738 mmHg 69%
11:00 +19°C° 0.1 mm 2 m/s 738 mmHg 69%
12:00 +19°C° 0.1 mm 3 m/s 737 mmHg 68%
13:00 +19°C° 0.1 mm 3 m/s 737 mmHg 68%
14:00 +19°C° 0.1 mm 3 m/s 736 mmHg 70%
15:00 +18°C° 0.1 mm 3 m/s 736 mmHg 71%
16:00 +18°C° 0.1 mm 3 m/s 736 mmHg 73%
17:00 +17°C° 0.1 mm 3 m/s 735 mmHg 77%
18:00 +17°C° 0.1 mm 3 m/s 735 mmHg 80%
19:00 +16°C° 0.1 mm 3 m/s 735 mmHg 84%
20:00 +16°C° 0.3 mm 3 m/s 735 mmHg 85%
21:00 +14°C° 0.3 mm 4 m/s 735 mmHg 85%
22:00 +14°C° 0.3 mm 4 m/s 735 mmHg 86%
23:00 +14°C° 1 mm 4 m/s 734 mmHg 86%

27 Outubro, Terça-feira

Tempo Temperatura Precipitação Vento Pressão Humidade
00:00 +14°C° 1 mm 3 m/s 734 mmHg 87%
01:00 +14°C° 1 mm 3 m/s 734 mmHg 87%
02:00 +14°C° 4.6 mm 3 m/s 734 mmHg 89%
03:00 +13°C° 4.6 mm 4 m/s 733 mmHg 90%
04:00 +13°C° 4.6 mm 4 m/s 733 mmHg 92%
05:00 +13°C° 3.5 mm 4 m/s 733 mmHg 91%
06:00 +12°C° 3.5 mm 3 m/s 734 mmHg 90%
07:00 +12°C° 3.5 mm 3 m/s 734 mmHg 89%
08:00 +13°C° 1.3 mm 2 m/s 734 mmHg 85%
09:00 +14°C° 1.3 mm 2 m/s 734 mmHg 80%
10:00 +14°C° 1.3 mm 1 m/s 735 mmHg 75%
11:00 +15°C° 0.2 mm 2 m/s 735 mmHg 71%
12:00 +15°C° 0.2 mm 2 m/s 735 mmHg 66%
13:00 +16°C° 0.2 mm 3 m/s 735 mmHg 62%
14:00 +16°C° 0.3 mm 2 m/s 735 mmHg 64%
15:00 +15°C° 0.3 mm 2 m/s 735 mmHg 66%
16:00 +15°C° 0.3 mm 2 m/s 734 mmHg 69%
17:00 +15°C° 0.3 mm 1 m/s 734 mmHg 71%
18:00 +14°C° 0.3 mm 1 m/s 735 mmHg 72%
19:00 +13°C° 0.3 mm 1 m/s 735 mmHg 74%
20:00 +13°C° 0.1 mm 1 m/s 735 mmHg 74%
21:00 +13°C° 0.1 mm 1 m/s 735 mmHg 74%
22:00 +13°C° 0.1 mm 1 m/s 735 mmHg 74%
23:00 +13°C° 0.1 mm 2 m/s 735 mmHg 75%
Mostrar mais